{"data":{"norad_id":61846,"epoch":"2026-05-25T00:14:56.323104Z","epoch_age_seconds":64268,"freshness":"FRESH","line1":"1 61846U 24202B   26145.01037411 -.00000046  00000+0  78592-5 0  9996","line2":"2 61846  43.0012 156.2690 0001455 275.3055  84.7631 15.27575119 87128","mean_motion":15.27575119,"eccentricity":0.0001455,"inclination_deg":43.0012,"raan_deg":156.269,"arg_perigee_deg":275.3055,"mean_anomaly_deg":84.7631,"bstar":7.8592e-6,"rev_number":8712,"period_min":94.267049920443,"perigee_km":482.06540684497,"apogee_km":484.06201625203,"semimajor_km":6861.2007115485,"source":"CELESTRAK","updated_at":"2026-05-25T13:38:19.449465Z"}}